Chkhorotsku

Georgia     42˚31′11″N   42˚07′25″E
temp.,
°C
wind,
m/s
gust,
m/s
humid.,
%
clouds,
%
prec.,
mm/h
press.,
hPa
HPBL,
m
27 november, fri
fri2701:00+6˚ne128499 0.2 1028102
04:00+6˚ne127897 0.8 102886
07:00+5˚e128094 0.7 1029100
10:00+6˚ese258575 1.1 1029229
13:00+9˚se247226 0.0 1028411
16:00+10˚ese246815 0.0 1026491
19:00+7˚ne22760 0.0 102826
22:00+6˚ene22630 0.0 102828
28 november, sat
sat2801:00+5˚e24550 0.0 1027115
04:00+5˚e26520 0.0 1027153
07:00+4˚e24510 0.0 1026105
10:00+6˚e14480 0.0 1026142
13:00+13˚e25380 0.0 1023369
16:00+14˚e27430 0.0 1023335
19:00+8˚e25530 0.0 1024123
22:00+7˚e24530 0.0 1025102
29 november, sun
sun2901:00+6˚e24499 0.0 102596
04:00+5˚ene124738 0.0 102535
07:00+5˚e13462 0.0 102565
10:00+7˚ese12441 0.0 1025107
13:00+13˚e12340 0.0 1022271
16:00+14˚n11430 0.0 102147
19:00+9˚nne12490 0.0 102322
22:00+8˚ene11500 0.0 102322
30 november, mon
mon3001:00+7˚ene11470 0.0 102322
04:00+6˚ene11440 0.0 102222
07:00+6˚ne12430 0.0 102122
10:00+9˚e11440 0.0 102140
13:00+14˚se12360 0.0 1018285
16:00+14˚n11440 0.0 101774
19:00+9˚ne11510 0.0 101922
22:00+8˚ene11560 0.0 101922
1 december, tue
tue101:00+7˚ene12540 0.0 102022
04:00+6˚ene23500 0.0 102060
07:00+6˚ene12490 0.0 102049
10:00+8˚e14470 0.0 1020144
13:00+14˚ese26400 0.0 1019444
16:00+14˚ese27462 0.0 1019441
19:00+9˚e136035 0.0 102180
22:00+8˚e136165 0.0 102274